www.pogodaiklimat.ru

Погода и климат >> Архив погоды >> Россия >> Нижегородская область >> Нижний Новгород


АРХИВ ПОГОДЫ в Нижнем Новгороде

Время (UTC), дата Ветер
(напр.,м/с)
 
Видим.   Явления Облачность Т
(С)
Тd
(С)
f
(%)
Тe
(С)
Тes
(С)
Комфортность P
(гПа)
Po
(гПа)
Тmin
(С)
Tmax
(С)
R
(мм)
R24
(мм)
S
(см)
18 14.05 штиль 0
{4}
10 км 9/3 1000 м
[Sc Ci fib]
+20.6 +14.0 66 +23 +23 комфорт 1014.1 995.8
21 14.05 штиль 0
{1}
10 км 3/0
[Ci fib]
+18.0 +13.4 74 +18 +18 тепло 1013.6 995.2
00 15.05 штиль 0
{3}
10 км ясно +15.8 +14.6 93 +16 +16 тепло 1014.1 995.6
03 15.05 З 1-3
{3}
10 км 3/0
[Ci fib]
+16.7 +15.1 90 +18 +19 тепло 1014.1 995.6 +15.2
06 15.05 СВ 1-2
{4}
10 км 3/0
[Ci fib]
+20.7 +14.4 67 +25 +35 комфорт 1014.6 996.3
09 15.05 СЗ 1-4
{4}
10 км 3/3 1000 м
[Cu med, cong]
+23.4 +14.2 56 +27 +39 душно 1014.5 996.4
12 15.05 СЗ 2-5
{5}
10 км 4/4 1000 м
[Cu med, cong]
+25.2 +15.7 56 +28 +34 жарко 1013.5 995.6
15 15.05 С 2-6
{8}
10 км 9/9 600 м
[Cb cap]
+21.9 +13.8 60 +25 +25 комфорт 1014.7 996.5 +25.3
18 15.05 штиль 0
{8}
10 км гроза, ливневой дождь 10/10 600 м
[Cb cap]
+16.9 +15.5 91 +17 +17 тепло 1015.7 997.2
21 15.05 С 1-3
{7}
10 км {гроза, ливн. осадки} 6/0
[Ac trans]
+16.0 +13.1 83 +17 +17 тепло 1015.3 996.8
00 16.05 С 2-4
{5}
10 км слаб. ливневой дождь {гроза} 10/10 600 м
[Cb cap]
+14.8 +14.3 97 +14 +14 тепло 1015.3 996.6
03 16.05 С 2-6
{7}
10 км {ливн. осадки} 10/10 300 м
[Frnb]
+14.7 +13.4 92 +14 +14 тепло 1015.8 997.1 +14.6 2
06 16.05 С 3-6
{8}
10 км {ливн. осадки, дождь} 10/10 300 м
[Frnb]
+14.0 +11.2 83 +13 +13 по сезону 1017.1 998.3 +13.2
09 16.05 СЗ 2-7
{8}
10 км 8/4 600 м
[Sc Cc]
+17.2 +10.5 65 +18 +25 тепло 1018.0 999.4
12 16.05 СЗ 3-6
{8}
10 км 3/1 1000 м
[Cu hum Cs]
+17.6 +5.1 44 +18 +25 тепло 1018.6 1000.0
15 16.05 СЗ 2-7
{9}
10 км 1/0
[Ac trans]
+16.2 +2.7 40 +16 +18 тепло 1019.4 1000.7 +18.1 0.0
18 16.05 СЗ 2-5
{8}
10 км 8/0
[Ac trans Ci fib]
+12.8 +1.1 45 +12 +12 по сезону 1020.9 1002.0
21 16.05 С 3-6
{9}
10 км 8/0
[Ci]
+10.0 0.0 50 +8 +8 по сезону 1022.5 1003.3
00 17.05 С 2-5
{7}
10 км ясно +7.8 0.0 58 +6 +6 по сезону 1023.3 1003.9
03 17.05 С 2-4
{6}
10 км ясно +8.5 -0.7 52 +7 +9 прохладно 1024.2 1004.9 +6.4
06 17.05 С 2-5
{6}
10 км 4/4 1000 м
[Cu hum]
+11.6 -1.7 40 +11 +17 по сезону 1024.0 1004.9
09 17.05 С 2-6
{8}
10 км 4/4 1000 м
[Cu hum]
+13.7 0.0 39 +13 +22 по сезону 1022.5 1003.5
12 17.05 С 2-5
{9}
10 км ясно +15.2 -1.9 31 +15 +25 по сезону 1020.3 1001.5
15 17.05 С 2-5
{8}
10 км ясно +15.8 +0.4 35 +16 +18 тепло 1019.1 1000.3 +16.2
18 17.05 З 1-2
{7}
10 км ясно +12.8 +1.3 45 +13 +13 по сезону 1018.1 999.2
21 17.05 З 1-2
{3}
10 км ясно +10.9 +2.5 56 +11 +11 по сезону 1017.1 998.1
00 18.05 З 1-2
{4}
10 км ясно +9.8 +1.9 58 +10 +10 по сезону 1016.1 997.1
03 18.05 З 1-3
{4}
10 км ясно +11.2 +3.8 60 +11 +13 по сезону 1015.8 996.9 +8.9
06 18.05 С 2-9
{10}
10 км ясно +12.4 +1.3 47 +12 +21 по сезону 1015.7 996.9
09 18.05 СЗ 3-10
{11}
10 км 6/1 1000 м
[Cu hum Ci]
+14.2 +1.3 41 +14 +23 по сезону 1015.3 996.5
12 18.05 СЗ 3-10
{11}
10 км 3/1 1000 м
[Cu hum Ci fib]
+15.1 -1.9 31 +15 +22 по сезону 1014.1 995.4
15 18.05 С 2-7
{11}
10 км 3/1 1000 м
[Cu hum Ci fib]
+15.4 +0.2 35 +15 +17 по сезону 1013.5 994.8 +16.1
18 18.05 СЗ 1-4
{9}
10 км 10/10 600 м
[Sc]
+12.9 -0.5 40 +13 +13 по сезону 1013.1 994.3
21 18.05 С 3-9
{10}
10 км слаб. дождь 10/10 300 м
[Frnb]
+9.6 +5.0 73 +7 +7 прохладно 1013.6 994.6
00 19.05 С 1-4
{10}
10 км {дождь} 8/8 600 м
[Sc]
+6.3 -0.5 62 +6 +6 по сезону 1015.0 995.7
03 19.05 С 1-4
{5}
10 км 1/1 1000 м
[Cu hum]
+6.6 -0.8 59 +6 +8 прохладно 1015.3 996.1 +4.3 0.0
06 19.05 СЗ 3-7
{8}
10 км 9/9 600 м
[Sc]
+7.9 -3.0 46 +6 +7 холодно 1015.4 996.2
09 19.05 С 3-7
{10}
10 км 8/8 600 м
[Cu Sc]
+9.2 -2.2 45 +7 +10 очень
холодно
1015.7 996.6
12 19.05 С 3-8
{10}
10 км 6/6 600 м
[Cu hum]
+11.1 -1.7 41 +10 +13 холодно 1016.0 997.1
15 19.05 С 2-6
{11}
10 км 8/8 600 м
[Cu Sc]
+11.4 -0.2 45 +11 +11 прохладно 1017.1 998.1 +11.9
18 19.05 СВ 1-3
{8}
10 км 3/0
[Ac trans]
+7.1 -0.9 57 +7 +7 холодно 1018.9 999.6
21 19.05 штиль 0
{3}
10 км ясно +3.0 -0.5 78 +2 +2 очень
холодно
1019.6 1000.0
00 20.05 З 1-3
{3}
10 км ясно +2.7 +0.3 84 +1 +1 холодно 1020.2 1000.6
03 20.05 З 1-2
{3}
10 км 3/0
[Ac trans]
+4.8 +1.2 77 +4 +5 холодно 1021.1 1001.7 +2.2
06 20.05 СЗ 2-6
{7}
10 км 3/0
[Ac trans]
+11.0 +2.5 56 +10 +18 по сезону 1020.8 1001.8
09 20.05 СЗ 2-6
{9}
10 км 8/8 1000 м
[Sc]
+11.5 -0.9 42 +11 +14 прохладно 1020.5 1001.5
12 20.05 СЗ 3-6
{8}
10 км 8/8 1000 м
[Sc]
+14.1 -0.7 36 +13 +15 прохладно 1019.9 1001.0
15 20.05 С 2-5
{8}
10 км 3/3 1000 м
[Sc]
+13.8 -0.5 37 +14 +15 по сезону 1019.3 1000.4 +15.2
18 20.05 штиль 0
{5}
10 км 3/0
[Ac trans]
+8.7 +2.3 64 +8 +8 прохладно 1020.3 1001.1
21 20.05 штиль 0 10 км ясно +5.2 +1.1 75 +4 +4 холодно 1020.8 1001.4
00 21.05 штиль 0
{2}
10 км ясно +5.2 +1.4 76 +4 +4 холодно 1021.3 1001.9
03 21.05 З 1-3
{3}
10 км 10/0
[Ci]
+9.3 +3.2 66 +9 +11 по сезону 1021.7 1002.5 +4.1
06 21.05 З 2-3
{4}
10 км 10/0
[Ci]
+14.2 +1.3 41 +14 +22 по сезону 1021.2 1002.4
09 21.05 З 2-5
{7}
10 км 10/0
[Ci]
+17.0 -1.4 28 +17 +29 опасность
простуды
1020.0 1001.4
12 21.05 С 2-6
{8}
10 км 10/0
[Ac lent Ci]
+18.2 -3.6 22 +19 +23 тепло 1018.8 1000.2
15 21.05 С 1-2
{6}
10 км 10/0
[Ac As]
+16.9 +2.9 39 +18 +19 тепло 1017.6 999.0 +18.7

 

Местоположение метеостанции Нижний Новгород (Нижегородская область, Россия): широта 56.27 долгота 44.00 высота над уровнем моря 157 м.

В архиве по умолчанию представлена погода в Нижнем Новгороде за последнюю неделю. Архивные данные за месяц целиком и за предыдущие месяцы, начиная с января 2011 года, Вы можете получить, выбрав интересующий диапазон дат из раскрывающегося списка и нажав кнопку "Ввод!".


*Определитесь, кто Вы:
робот инопланетянин человек

Внимание! Время в таблицах - всемирное. Для получения местного времени необходимо прибавить поправку, которая равна 3 ч.

Смотрите также архив погоды в соседних городах и на ближайших метеорологических станциях:

Погода в Нижнем Новгороде аэропорт (Нижегородская область, Россия) (15 км)
Погода в Дальнем Константиново (Нижегородская область, Россия) (53 км)
Погода в Балахне (Нижегородская область, Россия) (54 км)
Погода в Волжской ГМО (Нижегородская область, Россия) (57 км)
Погода в Семенове (Нижегородская область, Россия) (60 км)
Погода в Павлово (Нижегородская область, Россия) (70 км)
Погода в Лысково (Нижегородская область, Россия) (70 км)
Погода в Арзамасе (Нижегородская область, Россия) (101 км)
Погода в Воскресенском (Нижегородская область, Россия) (106 км)
Погода в Вязниках (Владимирская область, Россия) (113 км)

Пояснения к столбцам:

Ветер - указаны скорость ветра в м/с - средняя за 10 мин, порывы в срок и между сроками (в фигурных скобках) и направление, откуда дует ветер: С - северный, СВ - северо-восточный, В - восточный, ЮВ - юго-восточный, Ю - южный, ЮЗ - юго-западный, З - западный, СЗ - северо-западный.
Видимость - горизонтальная дальность видимости в метрах или километрах. При видимости от 1 до 10 км при отсутствии осадков обычно наблюдается дымка, при ухудшении видимости до 1 км и менее - туман. В сухую погоду видимость может ухудшаться дымом, пылью или мглою.
Явления - указаны атмосферные явления, наблюдавшиеся в срок или в последний час перед сроком; фигурными скобками обозначены явления, наблюдавшиеся между сроками (за 1-3 часа до срока); квадратными скобками обозначены град или гололедные отложения с указанием их диаметра в мм.
Облачность - указаны через наклонную черту общая и нижняя облачность в баллах и высота нижней границы облаков в метрах; квадратными скобками обозначены формы облаков: Ci - перистые, Cs - перисто-слоистые, Cc - перисто-кучевые, Ac - высококучевые, As - высокослоистые, Sc - слоисто-кучевые, Ns - слоисто-дождевые, Cu - кучевые, Cb - кучево-дождевые. Подробнее классификацию облаков см. в Атласе облаков (PDF).
T - Температура воздуха - температура, измеренная на высоте 2 м над землей.
Td - Температура точки росы - температура, при понижении до которой содержащийся в воздухе водяной пар достигнет насыщения.
f - Относительная влажность воздуха - влажноcть воздуха, измеренная на высоте 2 м над землей.
Te - Эффективная температура - температура, которую ощущает одетый по сезону человек в тени. Характеристика душности погоды. При расчете учитывается влияние влажности воздуха и скорости ветра на теплоощущения человека.
Tes - Эффективная температура на солнце - температура, которую ощущает человек, с поправкой на солнечный нагрев. Характеристика знойности погоды. Зависит от высоты солнца над горизонтом, облачности и скорости ветра. Ночью, в пасмурную погоду, а также при ветре 12 м/с и более поправка равна нулю.
P - Атмосферное давление - приведенное к уровню моря атмосферное давление.
Po - Атмосферное давление - измеренное на уровне метеостанции атмосферное давление.
Tmin - Минимальная температура - минимум температуры воздуха на высоте 2 м над землей.
Tmax - Максимальная температура - максимум температуры воздуха на высоте 2 м над землей.
R - Количество осадков - Количество выпавших осадков за период времени, мм. При наведении курсора мыши на число - период времени, за который выпало указанное количество осадков.
R24 - Количество осадков - Количество выпавших осадков за 24 часа, мм.
S - Снежный покров - Высота снежного покрова, см. При наведении курсора мыши на число - состояние снежного покрова и степень покрытия местности в баллах.